EW5490 Weather Reports


time (UTC)temp
C
wind
direction
speed
KPH
gust
KPH
rain 1hr
cm
rain 24hr
cm
rain mn
cm
humidity
%
barometer
mb
20260505224516 13 104 3.2 6.4 0.00 0.00 0.00 81 1016.5
20260505223012 13 109 3.2 6.4 0.00 0.00 0.00 80 1016.6
20260505221511 13 117 3.2 6.4 0.00 0.00 0.00 80 1016.7
20260505220009 13 116 6.4 12.9 0.00 0.00 0.00 81 1016.8
20260505214509 13 100 4.8 11.3 0.00 0.00 0.00 82 1016.8
20260505213015 13 136 3.2 8.0 0.00 0.00 0.00 83 1016.8
20260505211510 13 125 4.8 8.0 0.00 0.00 0.00 83 1016.8
20260505210005 13 160 1.6 8.0 0.00 0.00 0.00 82 1016.5
20260505204508 13 170 0.0 4.8 0.00 0.00 0.00 81 1016.4
20260505203004 13 146 4.8 12.9 0.00 0.00 0.00 80 1016.3
20260505201507 13 136 3.2 9.7 0.00 0.00 0.00 79 1016.5
20260505200002 13 139 3.2 11.3 0.00 0.00 0.00 78 1016.5
20260505194504 14 166 9.7 20.9 0.00 0.00 0.00 78 1016.4
20260505193001 13 160 8.0 16.1 0.00 0.00 0.00 78 1016.4
20260505191612 14 134 6.4 12.9 0.00 0.00 0.00 78 1016.3
20260505190100 14 151 8.0 16.1 0.00 0.00 0.00 78 1016.3
20260505184600 14 123 4.8 14.5 0.00 0.00 0.00 79 1016.6
20260505183057 14 126 4.8 16.1 0.00 0.00 0.00 79 1016.2
20260505181555 14 134 9.7 17.7 0.00 0.00 0.00 78 1016.1
20260505180058 14 136 8.0 14.5 0.00 0.00 0.00 78 1015.8
20260505174550 14 121 4.8 14.5 0.00 0.00 0.00 78 1015.6
20260505173055 15 146 4.8 12.9 0.00 0.00 0.00 77 1015.5
20260505171549 15 155 3.2 12.9 0.00 0.00 0.00 79 1015.4
20260505170103 15 148 4.8 19.3 0.00 0.00 0.00 81 1015.2
20260505164547 15 189 6.4 14.5 0.00 0.00 0.00 81 1015.1
20260505163043 16 169 9.7 25.7 0.00 0.00 0.00 80 1014.9
20260505161541 16 222 6.4 14.5 0.00 0.00 0.00 78 1014.7
20260505153041 17 184 6.4 14.5 0.00 0.00 0.00 73 1014.5
20260505151554 17 192 9.7 16.1 0.00 0.00 0.00 72 1014.4
20260505120002 17 174 4.8 11.3 0.00 0.00 0.00 65 1013.5
20260505114503 18 217 3.2 11.3 0.00 0.00 0.00 65 1013.6
20260505113003 19 169 4.8 14.5 0.00 0.00 0.00 63 1013.8
20260505111600 19 190 6.4 11.3 0.00 0.00 0.00 63 1013.9
20260505101557 18 345 1.6 8.0 0.00 0.00 0.00 62 1014.4
20260505100058 18 259 3.2 11.3 0.00 0.00 0.00 63 1014.5
20260505094555 18 296 4.8 11.3 0.00 0.00 0.00 64 1014.5
20260505093050 18 324 1.6 9.7 0.00 0.00 0.00 65 1014.6
20260505091548 17 341 1.6 8.0 0.00 0.00 0.00 68 1014.6
20260505090057 17 23 3.2 8.0 0.00 0.00 0.00 70 1014.6
20260505084549 17 5 3.2 9.7 0.00 0.00 0.00 72 1014.8
20260505083040 16 348 4.8 12.9 0.00 0.00 0.00 72 1014.7
20260505081543 16 5 1.6 9.7 0.00 0.00 0.00 74 1014.6
20260505080037 15 355 3.2 12.9 0.00 0.15 0.00 76 1014.6
20260505074532 15 42 3.2 8.0 0.00 0.15 0.00 75 1014.5
20260505073037 15 331 3.2 6.4 0.00 0.15 0.00 77 1014.5
20260505071526 14 9 1.6 6.4 0.00 0.15 0.00 78 1014.4
20260505070023 13 62 3.2 8.0 0.00 0.33 0.00 80 1014.1
20260505064525 12 47 1.6 8.0 0.00 0.33 0.00 83 1014.0
20260505063024 12 40 1.6 6.4 0.00 0.33 0.00 85 1013.7
20260505061519 11 44 3.2 6.4 0.00 0.33 0.00 86 1013.6
20260505060026 11 43 3.2 6.4 0.00 0.48 0.00 86 1013.5
20260505054530 11 53 1.6 4.8 0.00 0.48 0.00 86 1013.4
20260505053014 11 48 3.2 4.8 0.00 0.48 0.00 86 1013.1
20260505051511 11 49 1.6 4.8 0.00 0.48 0.00 85 1013.0
20260505041509 11 46 3.2 6.4 0.00 0.76 0.00 83 1012.7
20260505040008 12 49 1.6 4.8 0.00 1.14 0.00 81 1012.6
20260505034508 12 43 4.8 14.5 0.00 1.14 0.00 81 1012.5
20260505033015 11 48 4.8 9.7 0.00 1.14 0.00 83 1012.4
20260505031505 11 56 3.2 6.4 0.00 1.14 0.00 84 1012.3
20260505030004 11 40 0.0 4.8 0.00 1.88 0.00 82 1012.4
20260505024504 12 47 1.6 4.8 0.00 1.88 0.00 79 1012.4
20260505023002 12 61 1.6 4.8 0.00 1.88 0.00 79 1012.3
20260505021501 12 59 3.2 4.8 0.00 1.88 0.00 80 1012.2
20260505020100 12 53 0.0 3.2 0.00 1.88 0.00 82 1012.3
20260505020001 12 53 0.0 3.2 0.00 1.93 0.00 82 1012.3
20260505014559 12 53 0.0 3.2 0.00 1.93 0.00 81 1012.3
20260505013057 12 53 1.6 3.2 0.00 1.93 0.00 80 1012.3
20260505011600 12 53 1.6 6.4 0.00 1.93 0.00 79 1012.4
20260505010057 12 49 3.2 8.0 0.00 1.93 0.00 79 1012.6
20260505004554 12 42 3.2 6.4 0.00 1.93 0.00 79 1012.7
20260505003049 12 25 3.2 6.4 0.00 1.93 0.00 78 1012.8
20260505001548 13 53 4.8 9.7 0.00 1.93 0.00 77 1012.9
20260505000049 13 37 6.4 11.3 0.00 1.93 0.00 77 1012.9
20260504234612 13 36 4.8 14.5 0.00 1.93 0.00 77 1013.0
20260504233050 13 29 4.8 8.0 0.00 1.93 0.00 79 1012.9
20260504231553 13 22 4.8 17.7 0.00 1.93 0.00 82 1012.9
20260504230043 12 47 3.2 9.7 0.00 1.96 0.00 87 1012.9